Vorticity
4 3 4 4 5 5 4 4 4 5 7 8 5 4 4 5 4 4 4 6 4 3 2 4 4 3 3 4 4 4 5 6 6 6 7 6 7 7 7 7 8 8 8
4 5 5 5 6 6 6 6 7 7 6 6 5 6 5 4 5 4 5 5 5 7 7 6 5 4 3 4 4 4 4 4 5 5 6 6 7 7 7 7 7 7 7
6 6 7 6 8 8 9 10 11 12 12 13 12 10 7 6 6 5 5 5 4 4 5 7 7 6 6 4 3 4 4 4 5 6 5 7 6 7 7 7 7 7 7
9 10 10 10 10 11 12 14 15 17 19 19 18 16 13 12 9 7 6 5 6 6 6 5 5 6 6 6 6 6 6 5 5 5 6 7 6 6 6 7 7 7 9
8 10 11 12 12 13 12 12 12 11 12 14 16 16 20 20 16 14 12 10 8 7 7 6 6 6 5 5 7 6 7 8 7 7 6 6 6 6 7 7 7 8 7
10 11 10 10 9 10 10 10 10 11 11 11 12 13 12 15 18 20 18 16 14 13 10 9 7 7 7 7 5 6 6 4 8 8 7 7 6 6 6 7 8 8 7
9 9 9 9 9 9 9 9 8 7 5 5 3 3 3 3 4 7 12 16 18 18 17 16 13 9 7 6 7 7 7 7 6 5 6 7 7 7 7 6 7 8 8
10 9 7 7 7 6 6 5 5 5 5 4 4 4 4 5 5 5 6 5 5 8 14 15 16 16 15 10 9 7 6 7 7 7 6 6 7 7 7 7 6 7 7
8 8 8 7 6 5 4 4 5 4 4 4 5 5 6 6 5 4 3 3 3 3 3 4 9 14 12 12 15 12 6 9 4 3 7 7 7 8 8 7 7 7 8
3 4 4 4 4 3 4 3 4 2 4 4 5 6 7 8 9 10 11 12 11 10 8 7 6 7 6 10 11 11 6 15 14 8 6 5 2 4 7 9 7 7 7
3 2 2 3 3 3 2 6 6 7 9 9 8 9 9 10 10 10 10 9 9 10 13 13 11 9 10 10 6 5 10 8 11 5 4 3 5 11 10 2 3 8 9
1 2 2 2 4 6 7 8 7 7 7 7 7 8 9 10 10 10 10 10 10 11 9 9 11 14 14 12 12 11 9 5 7 12 12 12 9 7 0 2 7 9 9
1 4 7 8 8 8 8 8 9 9 9 9 9 10 10 10 11 11 11 12 12 11 11 12 11 10 10 12 15 15 15 17 12 8 3 7 15 14 11 11 8 3 4
8 8 9 8 8 7 7 8 8 9 9 10 10 11 11 12 11 12 12 12 12 12 13 13 12 11 11 11 11 12 13 14 15 16 18 15 9 9 16 16 12 11 8
9 8 7 6 7 7 7 8 9 9 9 9 9 9 9 8 8 8 7 7 7 7 7 7 8 11 12 13 13 12 12 11 11 14 14 15 16 18 12 9 15 16 16
6 7 7 6 5 7 8 9 8 7 6 6 6 6 5 5 5 6 5 5 5 6 6 6 6 5 5 5 6 9 12 12 12 12 10 13 14 15 16 18 12 12 15
5 2 3 6 9 8 7 6 6 6 5 6 6 7 7 7 7 7 8 8 7 7 6 6 6 7 7 8 7 6 6 7 8 10 12 11 10 13 13 15 16 16 11
7 9 6 4 5 6 6 7 9 8 8 8 9 10 11 11 11 12 13 13 13 12 12 10 9 8 7 7 8 9 9 8 8 9 8 8 10 10 13 13 13 15 15
4 5 6 7 8 10 11 14 16 18 20 21 21 20 20 20 20 20 19 19 19 19 18 18 18 18 15 12 9 9 10 10 9 10 10 11 9 8 9 11 12 11 14
8 11 15 17 18 18 19 19 17 16 16 15 15 14 14 14 13 13 13 13 15 16 19 20 21 22 21 20 19 18 14 13 12 11 12 10 11 10 9 7 8 11 12
16 14 14 15 14 13 12 11 10 9 9 9 11 11 11 12 12 12 13 14 15 15 14 14 14 14 17 19 20 20 21 20 19 17 14 12 12 11 10 11 10 10 14
13 12 11 10 9 9 9 9 10 9 9 10 10 10 10 11 10 12 13 13 13 13 14 15 14 14 14 14 14 15 17 21 23 20 18 19 20 16 13 10 9 8 5
11 11 12 12 13 12 13 13 12 13 12 12 11 11 11 10 11 12 12 12 13 13 13 13 13 13 13 13 14 15 17 17 17 18 20 17 15 19 21 20 17 15 11
9 9 9 9 10 10 11 11 12 12 13 14 14 13 12 11 11 11 13 13 14 13 13 13 12 12 13 13 14 14 13 11 15 17 19 20 19 13 13 19 17 17 15
9 9 9 8 9 9 9 9 8 8 11 14 15 13 12 12 12 12 13 14 13 13 14 15 14 15 14 15 17 16 14 20 17 12 11 15 18 22 23 19 21 20 18
8 8 8 8 8 8 8 9 8 7 9 13 14 13 12 12 12 12 13 12 13 12 12 13 13 14 15 16 15 16 11 15 14 10 9 9 9 8 11 20 22 22 18
Height
3116 3118 3119 3120 3121 3121 3122 3123 3124 3126 3128 3129 3130 3130 3131 3132 3133 3134 3135 3136 3136 3136 3137 3139 3140 3141 3141 3142 3143 3143 3144 3146 3146 3147 3148 3148 3150 3151 3152 3153 3154 3156 3157
3113 3114 3114 3115 3116 3117 3118 3119 3120 3121 3122 3123 3124 3124 3125 3125 3127 3128 3129 3129 3131 3133 3133 3134 3135 3135 3136 3137 3138 3138 3139 3140 3141 3142 3142 3143 3145 3146 3146 3148 3149 3150 3151
3109 3110 3110 3111 3111 3112 3113 3113 3114 3115 3115 3116 3117 3117 3118 3118 3119 3120 3121 3122 3124 3126 3127 3128 3129 3130 3131 3131 3131 3132 3133 3134 3135 3135 3136 3136 3138 3139 3141 3141 3143 3144 3145
3104 3105 3105 3106 3107 3107 3107 3107 3108 3108 3109 3109 3110 3111 3111 3111 3111 3112 3113 3114 3116 3119 3120 3120 3122 3123 3124 3125 3125 3126 3126 3127 3128 3129 3129 3130 3131 3131 3133 3135 3135 3137 3139
3099 3100 3101 3101 3102 3102 3102 3103 3103 3103 3103 3104 3104 3104 3104 3105 3105 3106 3106 3106 3107 3109 3112 3112 3113 3114 3115 3116 3117 3117 3119 3121 3121 3122 3122 3122 3123 3124 3124 3126 3128 3129 3130
3095 3096 3097 3097 3097 3098 3098 3098 3098 3098 3099 3099 3099 3099 3099 3099 3099 3099 3099 3098 3099 3100 3102 3103 3103 3104 3105 3106 3108 3108 3109 3111 3112 3114 3114 3114 3114 3116 3116 3116 3119 3119 3122
3091 3092 3093 3093 3094 3094 3094 3094 3095 3095 3095 3094 3094 3095 3095 3095 3094 3093 3093 3092 3091 3091 3091 3092 3093 3094 3095 3096 3097 3098 3099 3099 3101 3103 3104 3105 3106 3106 3107 3106 3109 3108 3112
3088 3089 3090 3090 3091 3091 3091 3091 3091 3091 3090 3090 3090 3089 3089 3089 3088 3088 3086 3086 3085 3084 3083 3082 3082 3083 3084 3085 3086 3087 3088 3089 3089 3091 3093 3094 3096 3097 3097 3097 3098 3098 3100
3084 3085 3086 3087 3087 3087 3087 3086 3086 3086 3085 3085 3084 3083 3082 3082 3081 3080 3079 3078 3077 3076 3075 3074 3073 3073 3073 3073 3074 3075 3076 3077 3078 3078 3080 3082 3084 3085 3086 3086 3087 3087 3087
3080 3081 3082 3083 3082 3082 3081 3081 3080 3080 3078 3077 3076 3075 3074 3073 3072 3071 3069 3068 3067 3066 3065 3064 3063 3062 3062 3063 3063 3064 3064 3064 3066 3066 3067 3068 3070 3072 3074 3075 3075 3075 3075
3076 3077 3077 3077 3076 3075 3074 3073 3072 3071 3069 3068 3067 3065 3064 3063 3061 3060 3059 3058 3056 3055 3053 3053 3051 3050 3050 3049 3051 3052 3052 3052 3053 3053 3053 3055 3055 3057 3060 3063 3063 3063 3063
3072 3071 3071 3070 3069 3067 3066 3065 3064 3062 3061 3060 3058 3057 3055 3053 3051 3049 3048 3046 3045 3043 3042 3040 3039 3038 3038 3037 3037 3037 3038 3039 3039 3040 3040 3040 3041 3042 3044 3047 3049 3049 3051
3065 3065 3064 3063 3062 3061 3059 3057 3056 3054 3052 3051 3049 3046 3045 3043 3041 3039 3037 3035 3033 3031 3029 3028 3027 3026 3025 3024 3022 3022 3022 3023 3024 3025 3025 3025 3025 3026 3028 3030 3032 3035 3035
3061 3060 3058 3057 3055 3054 3052 3050 3048 3046 3044 3042 3039 3037 3035 3033 3031 3029 3026 3024 3022 3020 3018 3016 3015 3013 3012 3011 3009 3008 3007 3008 3009 3009 3009 3009 3010 3010 3011 3013 3015 3016 3018
3055 3054 3052 3051 3049 3047 3045 3042 3039 3037 3035 3032 3030 3028 3025 3023 3020 3018 3016 3013 3011 3008 3007 3005 3003 3001 3000 2999 2996 2994 2993 2993 2995 2994 2994 2993 2993 2994 2995 2995 2997 2999 3000
3049 3047 3046 3044 3041 3039 3037 3034 3031 3028 3025 3022 3019 3017 3014 3012 3009 3006 3004 3001 2999 2996 2994 2992 2990 2989 2987 2986 2983 2980 2979 2978 2980 2980 2979 2978 2978 2978 2979 2980 2980 2982 2983
3042 3040 3038 3036 3033 3030 3028 3025 3022 3019 3015 3012 3008 3005 3002 2999 2996 2993 2990 2987 2985 2983 2981 2978 2975 2974 2973 2970 2968 2966 2963 2964 2965 2964 2964 2965 2964 2963 2963 2964 2964 2965 2966
3033 3031 3029 3027 3023 3020 3016 3014 3010 3006 3003 2999 2996 2992 2989 2985 2981 2978 2975 2972 2969 2967 2964 2963 2960 2958 2957 2955 2952 2950 2948 2947 2948 2948 2948 2948 2950 2949 2947 2947 2948 2948 2949
3025 3022 3018 3015 3012 3008 3004 3001 2997 2993 2989 2986 2982 2978 2974 2970 2967 2963 2960 2956 2953 2951 2948 2945 2943 2941 2939 2937 2935 2933 2931 2931 2931 2931 2932 2932 2932 2934 2933 2931 2931 2932 2934
3015 3011 3007 3003 2999 2995 2992 2988 2984 2980 2977 2974 2970 2966 2962 2958 2955 2951 2947 2943 2940 2936 2933 2930 2927 2924 2922 2919 2917 2915 2913 2913 2913 2914 2914 2914 2915 2916 2917 2916 2915 2916 2919
3006 3002 2998 2994 2989 2985 2982 2978 2974 2970 2967 2963 2959 2955 2951 2947 2943 2939 2935 2931 2928 2924 2921 2918 2914 2911 2907 2905 2902 2900 2896 2895 2894 2894 2894 2896 2898 2899 2899 2899 2900 2902 2903
2998 2994 2991 2987 2982 2977 2973 2970 2966 2962 2957 2953 2950 2945 2941 2937 2932 2928 2924 2920 2916 2912 2909 2906 2903 2899 2895 2892 2889 2886 2883 2881 2878 2878 2877 2877 2879 2880 2881 2881 2882 2885 2886
2990 2986 2982 2978 2974 2969 2963 2959 2955 2951 2947 2943 2939 2935 2931 2926 2922 2918 2914 2910 2906 2901 2897 2893 2890 2887 2884 2880 2878 2874 2871 2868 2865 2863 2862 2860 2859 2861 2863 2865 2867 2867 2869
2982 2978 2974 2970 2966 2961 2956 2951 2946 2940 2936 2932 2929 2924 2920 2916 2912 2907 2903 2899 2896 2891 2887 2883 2879 2875 2872 2869 2866 2863 2859 2856 2854 2851 2849 2846 2845 2844 2843 2845 2848 2851 2853
2975 2970 2966 2962 2958 2953 2948 2943 2937 2931 2926 2922 2918 2914 2909 2906 2902 2898 2894 2889 2886 2881 2876 2872 2867 2863 2859 2857 2854 2852 2848 2846 2843 2841 2837 2833 2831 2830 2829 2830 2832 2834 2837
2967 2962 2957 2952 2948 2942 2938 2933 2928 2922 2917 2913 2908 2904 2899 2896 2892 2888 2885 2881 2876 2872 2868 2864 2859 2855 2850 2846 2843 2841 2839 2837 2835 2827 2824 2822 2820 2818 2817 2816 2817 2819 2821